カタログに戻る

SL-14 R/B

運用中PO
NORAD 22237·ROCKET BODY·🇷🇺 Russia

打ち上げ Nov 24, 1992 から Plesetsk Cosmodrome

Loading…

次のパス (今後24時間)

TLE

最新Source: Space-Track

元期: Sep 14, 2026, 14:28 UTC

1 22237U 92080B   26257.60339454  .00000276  00000-0  33048-4 0  9998
2 22237  82.5114 213.9178 0017902 318.5462  41.4392 14.80419330822387

AllMySatでSL-14 R/Bをリアルタイム追跡

Download on the App Store